Year,Month,Day,Hour,Minute,Value (Times are PST for temperature in C)
2016,03,27,00,00,6.60
2016,03,27,00,01,6.60
2016,03,27,00,02,6.60
2016,03,27,00,03,6.60
2016,03,27,00,04,6.60
2016,03,27,00,05,6.60
2016,03,27,00,06,6.60
2016,03,27,00,07,6.60
2016,03,27,00,08,6.60
2016,03,27,00,09,6.60
2016,03,27,00,10,6.60
2016,03,27,00,11,6.60
2016,03,27,00,12,6.60
2016,03,27,00,13,6.60
2016,03,27,00,14,6.60
2016,03,27,00,15,6.60
2016,03,27,00,16,6.60
2016,03,27,00,17,6.60
2016,03,27,00,18,6.60
2016,03,27,00,19,6.60
2016,03,27,00,20,6.60
2016,03,27,00,21,6.60
2016,03,27,00,22,6.60
2016,03,27,00,23,6.60
2016,03,27,00,24,6.60
2016,03,27,00,25,6.60
2016,03,27,00,26,6.60
2016,03,27,00,27,6.60
2016,03,27,00,28,6.60
2016,03,27,00,29,6.60
2016,03,27,00,30,6.60
2016,03,27,00,31,6.50
2016,03,27,00,32,6.60
2016,03,27,00,33,6.50
2016,03,27,00,34,6.50
2016,03,27,00,35,6.50
2016,03,27,00,36,6.50
2016,03,27,00,37,6.50
2016,03,27,00,38,6.50
2016,03,27,00,39,6.50
2016,03,27,00,40,6.50
2016,03,27,00,41,6.40
2016,03,27,00,42,6.40
2016,03,27,00,43,6.40
2016,03,27,00,44,6.40
2016,03,27,00,45,6.40
2016,03,27,00,46,6.40
2016,03,27,00,47,6.40
2016,03,27,00,48,6.40
2016,03,27,00,49,6.50
2016,03,27,00,50,6.50
2016,03,27,00,51,6.50
2016,03,27,00,52,6.50
2016,03,27,00,53,6.40
2016,03,27,00,54,6.40
2016,03,27,00,55,6.40
2016,03,27,00,56,6.40
2016,03,27,00,57,6.40
2016,03,27,00,58,6.40
2016,03,27,00,59,6.40
2016,03,27,01,00,6.40
2016,03,27,01,01,6.40
2016,03,27,01,02,6.40
2016,03,27,01,03,6.40
2016,03,27,01,04,6.40
2016,03,27,01,05,6.40
2016,03,27,01,06,6.40
2016,03,27,01,07,6.40
2016,03,27,01,08,6.30
2016,03,27,01,09,6.30
2016,03,27,01,10,6.30
2016,03,27,01,11,6.40
2016,03,27,01,12,6.40
2016,03,27,01,13,6.40
2016,03,27,01,14,6.40
2016,03,27,01,15,6.40
2016,03,27,01,16,6.40
2016,03,27,01,17,6.40
2016,03,27,01,18,6.40
2016,03,27,01,19,6.30
2016,03,27,01,20,6.30
2016,03,27,01,21,6.30
2016,03,27,01,22,6.30
2016,03,27,01,23,6.30
2016,03,27,01,24,6.30
2016,03,27,01,25,6.30
2016,03,27,01,26,6.30
2016,03,27,01,27,6.30
2016,03,27,01,28,6.30
2016,03,27,01,29,6.30
2016,03,27,01,30,6.30
2016,03,27,01,31,6.30
2016,03,27,01,32,6.20
2016,03,27,01,33,6.20
2016,03,27,01,34,6.20
2016,03,27,01,35,6.20
2016,03,27,01,36,6.20
2016,03,27,01,37,6.20
2016,03,27,01,38,6.20
2016,03,27,01,39,6.20
2016,03,27,01,40,6.20
2016,03,27,01,41,6.20
2016,03,27,01,42,6.20
2016,03,27,01,43,6.20
2016,03,27,01,44,6.20
2016,03,27,01,45,6.10
2016,03,27,01,46,6.10
2016,03,27,01,47,6.10
2016,03,27,01,48,6.10
2016,03,27,01,49,6.10
2016,03,27,01,50,6.10
2016,03,27,01,51,6.10
2016,03,27,01,52,6.10
2016,03,27,01,53,6.10
2016,03,27,01,54,6.10
2016,03,27,01,55,6.10
2016,03,27,01,56,6.10
2016,03,27,01,57,6.10
2016,03,27,01,58,6.10
2016,03,27,01,59,6.10
2016,03,27,02,00,6.10
2016,03,27,02,01,6.10
2016,03,27,02,02,6.10
2016,03,27,02,03,6.10
2016,03,27,02,04,6.10
2016,03,27,02,05,6.10
2016,03,27,02,06,6.10
2016,03,27,02,07,6.00
2016,03,27,02,08,6.00
2016,03,27,02,09,6.00
2016,03,27,02,10,6.00
2016,03,27,02,11,6.00
2016,03,27,02,12,6.00
2016,03,27,02,13,5.90
2016,03,27,02,14,5.90
2016,03,27,02,15,5.90
2016,03,27,02,16,5.90
2016,03,27,02,17,5.90
2016,03,27,02,18,5.90
2016,03,27,02,19,5.90
2016,03,27,02,20,5.90
2016,03,27,02,21,5.90
2016,03,27,02,22,5.90
2016,03,27,02,23,5.80
2016,03,27,02,24,5.80
2016,03,27,02,25,5.80
2016,03,27,02,26,5.80
2016,03,27,02,27,5.80
2016,03,27,02,28,5.80
2016,03,27,02,29,5.80
2016,03,27,02,30,5.80
2016,03,27,02,31,5.80
2016,03,27,02,32,5.80
2016,03,27,02,33,5.80
2016,03,27,02,34,5.80
2016,03,27,02,35,5.80
2016,03,27,02,36,5.80
2016,03,27,02,37,5.80
2016,03,27,02,38,5.80
2016,03,27,02,39,5.80
2016,03,27,02,40,5.80
2016,03,27,02,41,5.70
2016,03,27,02,42,5.70
2016,03,27,02,43,5.70
2016,03,27,02,44,5.70
2016,03,27,02,45,5.70
2016,03,27,02,46,5.70
2016,03,27,02,47,5.70
2016,03,27,02,48,5.70
2016,03,27,02,49,5.70
2016,03,27,02,50,5.70
2016,03,27,02,51,5.70
2016,03,27,02,52,5.70
2016,03,27,02,53,5.70
2016,03,27,02,54,5.70
2016,03,27,02,55,5.70
2016,03,27,02,56,5.70
2016,03,27,02,57,5.70
2016,03,27,02,58,5.70
2016,03,27,02,59,5.70
2016,03,27,03,00,5.70
2016,03,27,03,01,5.70
2016,03,27,03,02,5.70
2016,03,27,03,03,5.70
2016,03,27,03,04,5.60
2016,03,27,03,05,5.60
2016,03,27,03,06,5.60
2016,03,27,03,07,5.60
2016,03,27,03,08,5.60
2016,03,27,03,09,5.60
2016,03,27,03,10,5.60
2016,03,27,03,11,5.60
2016,03,27,03,12,5.60
2016,03,27,03,13,5.60
2016,03,27,03,14,5.60
2016,03,27,03,15,5.60
2016,03,27,03,16,5.60
2016,03,27,03,17,5.60
2016,03,27,03,18,5.60
2016,03,27,03,19,5.60
2016,03,27,03,20,5.60
2016,03,27,03,21,5.60
2016,03,27,03,22,5.60
2016,03,27,03,23,5.60
2016,03,27,03,24,5.50
2016,03,27,03,25,5.50
2016,03,27,03,26,5.50
2016,03,27,03,27,5.50
2016,03,27,03,28,5.50
2016,03,27,03,29,5.50
2016,03,27,03,30,5.50
2016,03,27,03,31,5.50
2016,03,27,03,32,5.50
2016,03,27,03,33,5.50
2016,03,27,03,34,5.50
2016,03,27,03,35,5.50
2016,03,27,03,36,5.50
2016,03,27,03,37,5.50
2016,03,27,03,38,5.50
2016,03,27,03,39,5.50
2016,03,27,03,40,5.50
2016,03,27,03,41,5.50
2016,03,27,03,42,5.50
2016,03,27,03,43,5.40
2016,03,27,03,44,5.40
2016,03,27,03,45,5.40
2016,03,27,03,46,5.40
2016,03,27,03,47,5.40
2016,03,27,03,48,5.40
2016,03,27,03,49,5.40
2016,03,27,03,50,5.40
2016,03,27,03,51,5.40
2016,03,27,03,52,5.40
2016,03,27,03,53,5.40
2016,03,27,03,54,5.40
2016,03,27,03,55,5.40
2016,03,27,03,56,5.40
2016,03,27,03,57,5.40
2016,03,27,03,58,5.40
2016,03,27,03,59,5.40
2016,03,27,04,00,5.40
2016,03,27,04,01,5.40
2016,03,27,04,02,5.40
2016,03,27,04,03,5.40
2016,03,27,04,04,5.40
2016,03,27,04,05,5.40
2016,03,27,04,06,5.40
2016,03,27,04,07,5.40
2016,03,27,04,08,5.40
2016,03,27,04,09,5.40
2016,03,27,04,10,5.40
2016,03,27,04,11,5.40
2016,03,27,04,12,5.40
2016,03,27,04,13,5.40
2016,03,27,04,14,5.40
2016,03,27,04,15,5.40
2016,03,27,04,16,5.40
2016,03,27,04,17,5.30
2016,03,27,04,18,5.30
2016,03,27,04,19,5.30
2016,03,27,04,20,5.30
2016,03,27,04,21,5.30
2016,03,27,04,22,5.30
2016,03,27,04,23,5.30
2016,03,27,04,24,5.20
2016,03,27,04,25,5.20
2016,03,27,04,26,5.20
2016,03,27,04,27,5.20
2016,03,27,04,28,5.20
2016,03,27,04,29,5.20
2016,03,27,04,30,5.10
2016,03,27,04,31,5.10
2016,03,27,04,32,5.10
2016,03,27,04,33,5.10
2016,03,27,04,34,5.10
2016,03,27,04,35,5.10
2016,03,27,04,36,5.10
2016,03,27,04,37,5.10
2016,03,27,04,38,5.00
2016,03,27,04,39,5.00
2016,03,27,04,40,5.00
2016,03,27,04,41,5.00
2016,03,27,04,42,5.00
2016,03,27,04,43,5.00
2016,03,27,04,44,5.00
2016,03,27,04,45,5.00
2016,03,27,04,46,5.00
2016,03,27,04,47,5.00
2016,03,27,04,48,5.00
2016,03,27,04,49,5.00
2016,03,27,04,50,5.00
2016,03,27,04,51,5.00
2016,03,27,04,52,5.00
2016,03,27,04,53,4.90
2016,03,27,04,54,5.00
2016,03,27,04,55,5.00
2016,03,27,04,56,5.00
2016,03,27,04,57,5.00
2016,03,27,04,58,5.00
2016,03,27,04,59,5.00
2016,03,27,05,00,4.90
2016,03,27,05,01,4.90
2016,03,27,05,02,4.90
2016,03,27,05,03,4.90
2016,03,27,05,04,4.90
2016,03,27,05,05,4.90
2016,03,27,05,06,4.90
2016,03,27,05,07,4.90
2016,03,27,05,08,5.00
2016,03,27,05,09,4.90
2016,03,27,05,10,4.90
2016,03,27,05,11,5.00
2016,03,27,05,12,5.00
2016,03,27,05,13,5.00
2016,03,27,05,14,5.00
2016,03,27,05,15,5.00
2016,03,27,05,16,4.90
2016,03,27,05,17,4.90
2016,03,27,05,18,4.90
2016,03,27,05,19,4.90
2016,03,27,05,20,4.90
2016,03,27,05,21,4.90
2016,03,27,05,22,4.90
2016,03,27,05,23,4.90
2016,03,27,05,24,4.90
2016,03,27,05,25,4.90
2016,03,27,05,26,4.90
2016,03,27,05,27,4.90
2016,03,27,05,28,4.90
2016,03,27,05,29,4.90
2016,03,27,05,30,4.90
2016,03,27,05,31,4.80
2016,03,27,05,32,4.80
2016,03,27,05,33,4.80
2016,03,27,05,34,4.80
2016,03,27,05,35,4.80
2016,03,27,05,36,4.80
2016,03,27,05,37,4.80
2016,03,27,05,38,4.80
2016,03,27,05,39,4.80
2016,03,27,05,40,4.80
2016,03,27,05,41,4.80
2016,03,27,05,42,4.80
2016,03,27,05,43,4.80
2016,03,27,05,44,4.80
2016,03,27,05,45,4.80
2016,03,27,05,46,4.80
2016,03,27,05,47,4.80
2016,03,27,05,48,4.80
2016,03,27,05,49,4.80
2016,03,27,05,50,4.80
2016,03,27,05,51,4.80
2016,03,27,05,52,4.80
2016,03,27,05,53,4.80
2016,03,27,05,54,4.80
2016,03,27,05,55,4.80
2016,03,27,05,56,4.80
2016,03,27,05,57,4.80
2016,03,27,05,58,4.80
2016,03,27,05,59,4.80
2016,03,27,06,00,4.80
2016,03,27,06,01,4.80
2016,03,27,06,02,4.80
2016,03,27,06,03,4.80
2016,03,27,06,04,4.80
2016,03,27,06,05,4.80
2016,03,27,06,06,4.80
2016,03,27,06,07,4.80
2016,03,27,06,08,4.80
2016,03,27,06,09,4.80
2016,03,27,06,10,4.80
2016,03,27,06,11,4.80
2016,03,27,06,12,4.80
2016,03,27,06,13,4.80
2016,03,27,06,14,4.80
2016,03,27,06,15,4.80
2016,03,27,06,16,4.80
2016,03,27,06,17,4.80
2016,03,27,06,18,4.80
2016,03,27,06,19,4.80
2016,03,27,06,20,4.80
2016,03,27,06,21,4.80
2016,03,27,06,22,4.80
2016,03,27,06,23,4.80
2016,03,27,06,24,4.80
2016,03,27,06,25,4.80
2016,03,27,06,26,4.80
2016,03,27,06,27,4.80
2016,03,27,06,28,4.70
2016,03,27,06,29,4.70
2016,03,27,06,30,4.70
2016,03,27,06,31,4.70
2016,03,27,06,32,4.70
2016,03,27,06,33,4.70
2016,03,27,06,34,4.70
2016,03,27,06,35,4.70
2016,03,27,06,36,4.70
2016,03,27,06,37,4.70
2016,03,27,06,38,4.70
2016,03,27,06,39,4.70
2016,03,27,06,40,4.70
2016,03,27,06,41,4.70
2016,03,27,06,42,4.70
2016,03,27,06,43,4.70
2016,03,27,06,44,4.70
2016,03,27,06,45,4.70
2016,03,27,06,46,4.70
2016,03,27,06,47,4.70
2016,03,27,06,48,4.70
2016,03,27,06,49,4.70
2016,03,27,06,50,4.70
2016,03,27,06,51,4.70
2016,03,27,06,52,4.70
2016,03,27,06,53,4.70
2016,03,27,06,54,4.70
2016,03,27,06,55,4.70
2016,03,27,06,56,4.70
2016,03,27,06,57,4.70
2016,03,27,06,58,4.70
2016,03,27,06,59,4.70
2016,03,27,07,00,4.70
2016,03,27,07,01,4.70
2016,03,27,07,02,4.70
2016,03,27,07,03,4.70
2016,03,27,07,04,4.70
2016,03,27,07,05,4.70
2016,03,27,07,06,4.70
2016,03,27,07,07,4.70
2016,03,27,07,08,4.70
2016,03,27,07,09,4.70
2016,03,27,07,10,4.70
2016,03,27,07,11,4.70
2016,03,27,07,12,4.70
2016,03,27,07,13,4.70
2016,03,27,07,14,4.70
2016,03,27,07,15,4.70
2016,03,27,07,16,4.70
2016,03,27,07,17,4.70
2016,03,27,07,18,4.70
2016,03,27,07,19,4.70
2016,03,27,07,20,4.70
2016,03,27,07,21,4.70
2016,03,27,07,22,4.70
2016,03,27,07,23,4.60
2016,03,27,07,24,4.60
2016,03,27,07,25,4.60
2016,03,27,07,26,4.60
2016,03,27,07,27,4.60
2016,03,27,07,28,4.60
2016,03,27,07,29,4.60
2016,03,27,07,30,4.60
2016,03,27,07,31,4.60
2016,03,27,07,32,4.60
2016,03,27,07,33,4.60
2016,03,27,07,34,4.60
2016,03,27,07,35,4.60
2016,03,27,07,36,4.60
2016,03,27,07,37,4.60
2016,03,27,07,38,4.60
2016,03,27,07,39,4.60
2016,03,27,07,40,4.60
2016,03,27,07,41,4.60
2016,03,27,07,42,4.60
2016,03,27,07,43,4.50
2016,03,27,07,44,4.50
2016,03,27,07,45,4.50
2016,03,27,07,46,4.50
2016,03,27,07,47,4.50
2016,03,27,07,48,4.50
2016,03,27,07,49,4.50
2016,03,27,07,50,4.50
2016,03,27,07,51,4.50
2016,03,27,07,52,4.50
2016,03,27,07,53,4.50
2016,03,27,07,54,4.50
2016,03,27,07,55,4.50
2016,03,27,07,56,4.50
2016,03,27,07,57,4.40
2016,03,27,07,58,4.40
2016,03,27,07,59,4.50
2016,03,27,08,00,4.50
2016,03,27,08,01,4.50
2016,03,27,08,02,4.50
2016,03,27,08,03,4.50
2016,03,27,08,04,4.50
2016,03,27,08,05,4.50
2016,03,27,08,06,4.50
2016,03,27,08,07,4.50
2016,03,27,08,08,4.50
2016,03,27,08,09,4.50
2016,03,27,08,10,4.50
2016,03,27,08,11,4.50
2016,03,27,08,12,4.50
2016,03,27,08,13,4.50
2016,03,27,08,14,4.50
2016,03,27,08,15,4.50
2016,03,27,08,16,4.50
2016,03,27,08,17,4.50
2016,03,27,08,18,4.50
2016,03,27,08,19,4.50
2016,03,27,08,20,4.40
2016,03,27,08,21,4.40
2016,03,27,08,22,4.40
2016,03,27,08,23,4.40
2016,03,27,08,24,4.40
2016,03,27,08,25,4.40
2016,03,27,08,26,4.40
2016,03,27,08,27,4.40
2016,03,27,08,28,4.40
2016,03,27,08,29,4.40
2016,03,27,08,30,4.40
2016,03,27,08,31,4.40
2016,03,27,08,32,4.40
2016,03,27,08,33,4.40
2016,03,27,08,34,4.40
2016,03,27,08,35,4.40
2016,03,27,08,36,4.40
2016,03,27,08,37,4.40
2016,03,27,08,38,4.40
2016,03,27,08,39,4.50
2016,03,27,08,40,4.50
2016,03,27,08,41,4.50
2016,03,27,08,42,4.60
2016,03,27,08,43,4.60
2016,03,27,08,44,4.60
2016,03,27,08,45,4.60
2016,03,27,08,46,4.60
2016,03,27,08,47,4.70
2016,03,27,08,48,4.70
2016,03,27,08,49,4.70
2016,03,27,08,50,4.70
2016,03,27,08,51,4.70
2016,03,27,08,52,4.70
2016,03,27,08,53,4.70
2016,03,27,08,54,4.70
2016,03,27,08,55,4.70
2016,03,27,08,56,4.70
2016,03,27,08,57,4.70
2016,03,27,08,58,4.70
2016,03,27,08,59,4.70
2016,03,27,09,00,4.70
2016,03,27,09,01,4.70
2016,03,27,09,02,4.80
2016,03,27,09,03,4.80
2016,03,27,09,04,4.80
2016,03,27,09,05,4.90
2016,03,27,09,06,5.00
2016,03,27,09,07,5.10
2016,03,27,09,08,5.10
2016,03,27,09,09,5.20
2016,03,27,09,10,5.30
2016,03,27,09,11,5.40
2016,03,27,09,12,5.40
2016,03,27,09,13,5.50
2016,03,27,09,14,5.60
2016,03,27,09,15,5.70
2016,03,27,09,16,5.80
2016,03,27,09,17,5.90
2016,03,27,09,18,6.00
2016,03,27,09,19,6.00
2016,03,27,09,20,6.10
2016,03,27,09,21,6.10
2016,03,27,09,22,6.10
2016,03,27,09,23,6.10
2016,03,27,09,24,6.10
2016,03,27,09,25,6.10
2016,03,27,09,26,6.10
2016,03,27,09,27,6.10
2016,03,27,09,28,6.10
2016,03,27,09,29,6.20
2016,03,27,09,30,6.30
2016,03,27,09,31,6.40
2016,03,27,09,32,6.40
2016,03,27,09,33,6.50
2016,03,27,09,34,6.60
2016,03,27,09,35,6.60
2016,03,27,09,36,6.70
2016,03,27,09,37,6.80
2016,03,27,09,38,6.80
2016,03,27,09,39,6.90
2016,03,27,09,40,7.00
2016,03,27,09,41,7.10
2016,03,27,09,42,7.10
2016,03,27,09,43,7.20
2016,03,27,09,44,7.20
2016,03,27,09,45,7.30
2016,03,27,09,46,7.30
2016,03,27,09,47,7.20
2016,03,27,09,48,7.20
2016,03,27,09,49,7.20
2016,03,27,09,50,7.20
2016,03,27,09,51,7.30
2016,03,27,09,52,7.30
2016,03,27,09,53,7.30
2016,03,27,09,54,7.30
2016,03,27,09,55,7.30
2016,03,27,09,56,7.30
2016,03,27,09,57,7.30
2016,03,27,09,58,7.40
2016,03,27,09,59,7.40
2016,03,27,10,00,7.50
2016,03,27,10,01,7.60
2016,03,27,10,02,7.60
2016,03,27,10,03,7.50
2016,03,27,10,04,7.50
2016,03,27,10,05,7.40
2016,03,27,10,06,7.50
2016,03,27,10,07,7.40
2016,03,27,10,08,7.40
2016,03,27,10,09,7.50
2016,03,27,10,10,7.50
2016,03,27,10,11,7.40
2016,03,27,10,12,7.40
2016,03,27,10,13,7.30
2016,03,27,10,14,7.30
2016,03,27,10,15,7.20
2016,03,27,10,16,7.20
2016,03,27,10,17,7.20
2016,03,27,10,18,7.20
2016,03,27,10,19,7.30
2016,03,27,10,20,7.30
2016,03,27,10,21,7.30
2016,03,27,10,22,7.30
2016,03,27,10,23,7.40
2016,03,27,10,24,7.40
2016,03,27,10,25,7.40
2016,03,27,10,26,7.40
2016,03,27,10,27,7.40
2016,03,27,10,28,7.30
2016,03,27,10,29,7.30
2016,03,27,10,30,7.30
2016,03,27,10,31,7.40
2016,03,27,10,32,7.40
2016,03,27,10,33,7.50
2016,03,27,10,34,7.50
2016,03,27,10,35,7.60
2016,03,27,10,36,7.70
2016,03,27,10,37,7.70
2016,03,27,10,38,7.70
2016,03,27,10,39,7.80
2016,03,27,10,40,7.80
2016,03,27,10,41,7.80
2016,03,27,10,42,7.80
2016,03,27,10,43,7.80
2016,03,27,10,44,7.90
2016,03,27,10,45,7.90
2016,03,27,10,46,7.90
2016,03,27,10,47,8.00
2016,03,27,10,48,8.00
2016,03,27,10,49,8.10
2016,03,27,10,50,8.10
2016,03,27,10,51,8.20
2016,03,27,10,52,8.20
2016,03,27,10,53,8.30
2016,03,27,10,54,8.30
2016,03,27,10,55,8.30
2016,03,27,10,56,8.40
2016,03,27,10,57,8.40
2016,03,27,10,58,8.50
2016,03,27,10,59,8.60
2016,03,27,11,00,8.60
2016,03,27,11,01,8.70
2016,03,27,11,02,8.80
2016,03,27,11,03,8.80
2016,03,27,11,04,8.80
2016,03,27,11,05,8.80
2016,03,27,11,06,8.80
2016,03,27,11,07,8.80
2016,03,27,11,08,8.90
2016,03,27,11,09,8.90
2016,03,27,11,10,8.90
2016,03,27,11,11,8.90
2016,03,27,11,12,9.00
2016,03,27,11,13,9.00
2016,03,27,11,14,9.00
2016,03,27,11,15,9.00
2016,03,27,11,16,9.00
2016,03,27,11,17,9.10
2016,03,27,11,18,9.10
2016,03,27,11,19,9.10
2016,03,27,11,20,9.10
2016,03,27,11,21,9.10
2016,03,27,11,22,9.10
2016,03,27,11,23,9.10
2016,03,27,11,24,9.10
2016,03,27,11,25,9.20
2016,03,27,11,26,9.30
2016,03,27,11,27,9.30
2016,03,27,11,28,9.30
2016,03,27,11,29,9.30
2016,03,27,11,30,9.30
2016,03,27,11,31,9.30
2016,03,27,11,32,9.40
2016,03,27,11,33,9.50
2016,03,27,11,34,9.60
2016,03,27,11,35,9.70
2016,03,27,11,36,9.70
2016,03,27,11,37,9.80
2016,03,27,11,38,9.90
2016,03,27,11,39,10.00
2016,03,27,11,40,10.00
2016,03,27,11,41,10.10
2016,03,27,11,42,10.10
2016,03,27,11,43,10.20
2016,03,27,11,44,10.20
2016,03,27,11,45,10.20
2016,03,27,11,46,10.20
2016,03,27,11,47,10.30
2016,03,27,11,48,10.40
2016,03,27,11,49,10.50
2016,03,27,11,50,10.60
2016,03,27,11,51,10.60
2016,03,27,11,52,10.60
2016,03,27,11,53,10.70
2016,03,27,11,54,10.60
2016,03,27,11,55,10.60
2016,03,27,11,56,10.60
2016,03,27,11,57,10.60
2016,03,27,11,58,10.70
2016,03,27,11,59,10.70
2016,03,27,12,00,10.80
2016,03,27,12,01,10.80
2016,03,27,12,02,10.80
2016,03,27,12,03,10.80
2016,03,27,12,04,10.70
2016,03,27,12,05,10.60
2016,03,27,12,06,10.60
2016,03,27,12,07,10.60
2016,03,27,12,08,10.50
2016,03,27,12,09,10.50
2016,03,27,12,10,10.40
2016,03,27,12,11,10.30
2016,03,27,12,12,10.20
2016,03,27,12,13,10.10
2016,03,27,12,14,10.00
2016,03,27,12,15,10.00
2016,03,27,12,16,9.90
2016,03,27,12,17,9.80
2016,03,27,12,18,9.90
2016,03,27,12,19,9.90
2016,03,27,12,20,9.90
2016,03,27,12,21,9.90
2016,03,27,12,22,9.90
2016,03,27,12,23,9.90
2016,03,27,12,24,9.80
2016,03,27,12,25,9.80
2016,03,27,12,26,9.80
2016,03,27,12,27,9.80
2016,03,27,12,28,9.80
2016,03,27,12,29,9.80
2016,03,27,12,30,9.80
2016,03,27,12,31,9.80
2016,03,27,12,32,9.80
2016,03,27,12,33,9.80
2016,03,27,12,34,9.80
2016,03,27,12,35,9.80
2016,03,27,12,36,9.80
2016,03,27,12,37,9.80
2016,03,27,12,38,9.80
2016,03,27,12,39,9.80
2016,03,27,12,40,9.80
2016,03,27,12,41,9.80
2016,03,27,12,42,9.80
2016,03,27,12,43,9.80
2016,03,27,12,44,9.80
2016,03,27,12,45,9.80
2016,03,27,12,46,9.80
2016,03,27,12,47,9.80
2016,03,27,12,48,9.90
2016,03,27,12,49,9.90
2016,03,27,12,50,9.90
2016,03,27,12,51,9.90
2016,03,27,12,52,9.90
2016,03,27,12,53,9.90
2016,03,27,12,54,9.90
2016,03,27,12,55,10.00
2016,03,27,12,56,10.10
2016,03,27,12,57,10.10
2016,03,27,12,58,10.10
2016,03,27,12,59,10.10
2016,03,27,13,00,10.20
2016,03,27,13,01,10.30
2016,03,27,13,02,10.40
2016,03,27,13,03,10.50
2016,03,27,13,04,10.60
2016,03,27,13,05,10.60
2016,03,27,13,06,10.60
2016,03,27,13,07,10.60
2016,03,27,13,08,10.60
2016,03,27,13,09,10.60
2016,03,27,13,10,10.60
2016,03,27,13,11,10.60
2016,03,27,13,12,10.70
2016,03,27,13,13,10.70
2016,03,27,13,14,10.70
2016,03,27,13,15,10.80
2016,03,27,13,16,10.80
2016,03,27,13,17,10.80
2016,03,27,13,18,10.80
2016,03,27,13,19,10.90
2016,03,27,13,20,10.90
2016,03,27,13,21,10.90
2016,03,27,13,22,10.90
2016,03,27,13,23,10.90
2016,03,27,13,24,11.00
2016,03,27,13,25,11.00
2016,03,27,13,26,11.00
2016,03,27,13,27,10.90
2016,03,27,13,28,10.80
2016,03,27,13,29,10.70
2016,03,27,13,30,10.60
2016,03,27,13,31,10.50
2016,03,27,13,32,10.40
2016,03,27,13,33,10.30
2016,03,27,13,34,10.30
2016,03,27,13,35,10.30
2016,03,27,13,36,10.40
2016,03,27,13,37,10.40
2016,03,27,13,38,10.50
2016,03,27,13,39,10.60
2016,03,27,13,40,10.60
2016,03,27,13,41,10.60
2016,03,27,13,42,10.50
2016,03,27,13,43,10.40
2016,03,27,13,44,10.30
2016,03,27,13,45,10.30
2016,03,27,13,46,10.20
2016,03,27,13,47,10.20
2016,03,27,13,48,10.20
2016,03,27,13,49,10.10
2016,03,27,13,50,10.10
2016,03,27,13,51,10.10
2016,03,27,13,52,10.10
2016,03,27,13,53,10.10
2016,03,27,13,54,10.10
2016,03,27,13,55,10.20
2016,03,27,13,56,10.20
2016,03,27,13,57,10.30
2016,03,27,13,58,10.40
2016,03,27,13,59,10.50
2016,03,27,14,00,10.50
2016,03,27,14,01,10.60
2016,03,27,14,02,10.60
2016,03,27,14,03,10.60
2016,03,27,14,04,10.60
2016,03,27,14,05,10.70
2016,03,27,14,06,10.70
2016,03,27,14,07,10.80
2016,03,27,14,08,10.90
2016,03,27,14,09,11.00
2016,03,27,14,10,11.10
2016,03,27,14,11,11.20
2016,03,27,14,12,11.20
2016,03,27,14,13,11.10
2016,03,27,14,14,11.10
2016,03,27,14,15,11.10
2016,03,27,14,16,11.20
2016,03,27,14,17,11.20
2016,03,27,14,18,11.30
2016,03,27,14,19,11.30
2016,03,27,14,20,11.30
2016,03,27,14,21,11.30
2016,03,27,14,22,11.30
2016,03,27,14,23,11.20
2016,03,27,14,24,11.20
2016,03,27,14,25,11.20
2016,03,27,14,26,11.10
2016,03,27,14,27,11.10
2016,03,27,14,28,11.10
2016,03,27,14,29,11.10
2016,03,27,14,30,11.10
2016,03,27,14,31,11.20
2016,03,27,14,32,11.30
2016,03,27,14,33,11.30
2016,03,27,14,34,11.30
2016,03,27,14,35,11.40
2016,03,27,14,36,11.40
2016,03,27,14,37,11.40
2016,03,27,14,38,11.40
2016,03,27,14,39,11.50
2016,03,27,14,40,11.50
2016,03,27,14,41,11.60
2016,03,27,14,42,11.70
2016,03,27,14,43,11.80
2016,03,27,14,44,11.80
2016,03,27,14,45,11.90
2016,03,27,14,46,12.00
2016,03,27,14,47,12.00
2016,03,27,14,48,12.10
2016,03,27,14,49,12.20
2016,03,27,14,50,12.30
2016,03,27,14,51,12.40
2016,03,27,14,52,12.40
2016,03,27,14,53,12.30
2016,03,27,14,54,12.40
2016,03,27,14,55,12.40
2016,03,27,14,56,12.40
2016,03,27,14,57,12.40
2016,03,27,14,58,12.40
2016,03,27,14,59,12.30
2016,03,27,15,00,12.40
2016,03,27,15,01,12.50
2016,03,27,15,02,12.60
2016,03,27,15,03,12.70
2016,03,27,15,04,12.60
2016,03,27,15,05,12.60
2016,03,27,15,06,12.70
2016,03,27,15,07,12.80
2016,03,27,15,08,12.80
2016,03,27,15,09,12.70
2016,03,27,15,10,12.60
2016,03,27,15,11,12.60
2016,03,27,15,12,12.60
2016,03,27,15,13,12.50
2016,03,27,15,14,12.40
2016,03,27,15,15,12.30
2016,03,27,15,16,12.30
2016,03,27,15,17,12.20
2016,03,27,15,18,12.20
2016,03,27,15,19,12.20
2016,03,27,15,20,12.20
2016,03,27,15,21,12.30
2016,03,27,15,22,12.30
2016,03,27,15,23,12.40
2016,03,27,15,24,12.40
2016,03,27,15,25,12.50
2016,03,27,15,26,12.60
2016,03,27,15,27,12.70
2016,03,27,15,28,12.80
2016,03,27,15,29,12.80
2016,03,27,15,30,12.70
2016,03,27,15,31,12.70
2016,03,27,15,32,12.60
2016,03,27,15,33,12.50
2016,03,27,15,34,12.50
2016,03,27,15,35,12.40
2016,03,27,15,36,12.40
2016,03,27,15,37,12.50
2016,03,27,15,38,12.50
2016,03,27,15,39,12.60
2016,03,27,15,40,12.60
2016,03,27,15,41,12.70
2016,03,27,15,42,12.80
2016,03,27,15,43,12.80
2016,03,27,15,44,13.00
2016,03,27,15,45,13.00
2016,03,27,15,46,12.80
2016,03,27,15,47,12.60
2016,03,27,15,48,12.40
2016,03,27,15,49,12.30
2016,03,27,15,50,12.20
2016,03,27,15,51,12.20
2016,03,27,15,52,12.20
2016,03,27,15,53,12.10
2016,03,27,15,54,12.10
2016,03,27,15,55,12.00
2016,03,27,15,56,12.00
2016,03,27,15,57,12.00
2016,03,27,15,58,11.90
2016,03,27,15,59,11.80
2016,03,27,16,00,11.60
2016,03,27,16,01,11.50
2016,03,27,16,02,11.40
2016,03,27,16,03,11.40
2016,03,27,16,04,11.30
2016,03,27,16,05,11.20
2016,03,27,16,06,11.20
2016,03,27,16,07,11.10
2016,03,27,16,08,11.10
2016,03,27,16,09,11.00
2016,03,27,16,10,10.90
2016,03,27,16,11,10.80
2016,03,27,16,12,10.70
2016,03,27,16,13,10.60
2016,03,27,16,14,10.50
2016,03,27,16,15,10.40
2016,03,27,16,16,10.30
2016,03,27,16,17,10.30
2016,03,27,16,18,10.20
2016,03,27,16,19,10.20
2016,03,27,16,20,10.20
2016,03,27,16,21,10.10
2016,03,27,16,22,10.20
2016,03,27,16,23,10.20
2016,03,27,16,24,10.30
2016,03,27,16,25,10.30
2016,03,27,16,26,10.30
2016,03,27,16,27,10.20
2016,03,27,16,28,10.10
2016,03,27,16,29,10.00
2016,03,27,16,30,10.00
2016,03,27,16,31,10.00
2016,03,27,16,32,9.90
2016,03,27,16,33,9.90
2016,03,27,16,34,9.90
2016,03,27,16,35,9.90
2016,03,27,16,36,9.90
2016,03,27,16,37,9.90
2016,03,27,16,38,9.90
2016,03,27,16,39,9.90
2016,03,27,16,40,9.90
2016,03,27,16,41,9.90
2016,03,27,16,42,9.90
2016,03,27,16,43,9.90
2016,03,27,16,44,9.90
2016,03,27,16,45,9.90
2016,03,27,16,46,9.90
2016,03,27,16,47,9.80
2016,03,27,16,48,9.90
2016,03,27,16,49,9.90
2016,03,27,16,50,9.90
2016,03,27,16,51,10.00
2016,03,27,16,52,10.00
2016,03,27,16,53,10.10
2016,03,27,16,54,10.10
2016,03,27,16,55,10.10
2016,03,27,16,56,10.10
2016,03,27,16,57,10.10
2016,03,27,16,58,10.10
2016,03,27,16,59,10.10
2016,03,27,17,00,10.00
2016,03,27,17,01,10.00
2016,03,27,17,02,9.90
2016,03,27,17,03,9.90
2016,03,27,17,04,9.90
2016,03,27,17,05,9.80
2016,03,27,17,06,9.80
2016,03,27,17,07,9.80
2016,03,27,17,08,9.80
2016,03,27,17,09,9.80
2016,03,27,17,10,9.80
2016,03,27,17,11,9.80
2016,03,27,17,12,9.80
2016,03,27,17,13,9.80
2016,03,27,17,14,9.80
2016,03,27,17,15,9.80
2016,03,27,17,16,9.80
2016,03,27,17,17,9.70
2016,03,27,17,18,9.70
2016,03,27,17,19,9.70
2016,03,27,17,20,9.70
2016,03,27,17,21,9.70
2016,03,27,17,22,9.70
2016,03,27,17,23,9.80
2016,03,27,17,24,9.80
2016,03,27,17,25,9.90
2016,03,27,17,26,9.90
2016,03,27,17,27,9.90
2016,03,27,17,28,9.90
2016,03,27,17,29,10.00
2016,03,27,17,30,10.00
2016,03,27,17,31,10.10
2016,03,27,17,32,10.10
2016,03,27,17,33,10.10
2016,03,27,17,34,10.20
2016,03,27,17,35,10.20
2016,03,27,17,36,10.30
2016,03,27,17,37,10.40
2016,03,27,17,38,10.40
2016,03,27,17,39,10.50
2016,03,27,17,40,10.50
2016,03,27,17,41,10.50
2016,03,27,17,42,10.40
2016,03,27,17,43,10.40
2016,03,27,17,44,10.40
2016,03,27,17,45,10.40
2016,03,27,17,46,10.40
2016,03,27,17,47,10.40
2016,03,27,17,48,10.40
2016,03,27,17,49,10.40
2016,03,27,17,50,10.40
2016,03,27,17,51,10.40
2016,03,27,17,52,10.40
2016,03,27,17,53,10.40